Location: Casteau
(50.5142°N, 4.0161°E)
Time: 08:02:53
(UTC+00:00)

Cosmos 2278 Rocket - Pass Details

Date: 18 September 2020
Orbit: 841 x 845 km, 71.0° (Epoch: 27 October)

Event Time Altitude Azimuth Distance (km) Brightness Sun altitude
Exits shadow 23:04:02 30° 337° (NNW) 1,468 3.8 -37.6°
Drops below altitude 10° 23:07:59 10° 18° (NNE) 2,472 5.2 -37.7°
Sets 23:10:42 0° 28° (NNE) 3,410 6.0 -37.8°
